Regional Weather Roundup
Issued by NWS

Home | Current Version | Previous Version | Graphics & Text | Print | Product List | Glossary On
Versions: 1 2 3 4 5 6 7 8 9 10 11 12 13 14 15 16 17 18 19 20 21 22 23 24 25 26 27 28 29 30 31 32 33 34 35 36 37 38 39 40 41 42 43 44 45 46 47 48 49 50
000
ASUS43 KFSD 290602
RWRSD

WEATHER ROUNDUP FOR SOUTH DAKOTA
NATIONAL WEATHER SERVICE SIOUX FALLS SD
100 AM CDT SUN MAR 29 2015

NOTE: "FAIR" INDICATES FEW OR NO CLOUDS BELOW 12,000 FEET WITH NO
SIGNIFICANT WEATHER AND/OR OBSTRUCTIONS TO VISIBILITY.


SDZ001>005-009-010-012>017-290700-
NORTHWEST AND NORTH CENTRAL SOUTH DAKOTA

CITY           SKY/WX    TMP DP  RH WIND       PRES   REMARKS
BUFFALO          N/A     49  31  49 NW40G55   29.74F
FAITH            N/A     45  36  70 W10       29.77R
MOBRIDGE       CLOUDY    49  43  80 NW16      29.64F
$$

SDZ012>016-024>037-041>051-057-063-072>074-290700-
SOUTHWEST AND SOUTH CENTRAL SOUTH DAKOTA

CITY           SKY/WX    TMP DP  RH WIND       PRES   REMARKS
RAPID CTY ARPT CLEAR     54  15  21 NW26G36   29.82R
PIERRE         CLEAR     53  44  71 NW21      29.72R
CUSTER         CLEAR     45  12  26 NW17G38   29.90R
ELLSWORTH AFB  CLEAR     55  15  21 NW25G36   29.83R
PHILIP         CLEAR     53  32  44 NW14      29.81R
PINE RIDGE     CLEAR     55  21  26 N16G25    29.88R
SPEARFISH      FAIR      50  16  25 NW21G31   29.89S
WINNER         FAIR      60  41  49 NW32G39   29.75R
$$

SDZ004>011-016>023-039-040-290700-
NORTHEAST SOUTH DAKOTA

CITY           SKY/WX    TMP DP  RH WIND       PRES   REMARKS
ABERDEEN       CLOUDY    48  36  63 S10       29.64F
WATERTOWN      MOCLDY    44  31  60 S22G39    29.62F
SISSETON         N/A     46  34  62 SW9       29.66R
$$

SDZ017-020-022-023-036>040-048>070-290700-
SOUTHEAST SOUTH DAKOTA

CITY           SKY/WX    TMP DP  RH WIND       PRES   REMARKS
SIOUX FALLS    PTCLDY    43  31  62 S23       29.74F
HURON          CLOUDY    47  33  58 S9G20     29.66R
MITCHELL       CLOUDY    50  34  54 S20G28    29.65F
YANKTON        MOCLDY    46  34  61 S20G29    29.76R
$$

ABBREVIATIONS USED IN REMARKS
   TC - TEMPERATURE IN CELSIUS
  WCI - WIND CHILL INDEX
   HX - HEAT INDEX
  VSB - VISIBILITY



USA.gov is the U.S. government's official web portal to all federal, state and local government web resources and services.